Location: Eppenbrunn
(49.1158°N, 7.5601°E)
Time: 06:26:33
(UTC+00:00)

Cosmos 1954 Rocket - Pass Details

Date: 09 April 2020
Orbit: 752 x 781 km, 74.1° (Epoch: 02 June)

Event Time Altitude Azimuth Distance (km) Brightness Sun altitude
Rises 19:28:17 0° 189° (S) 3,226 7.0 -12.2°
Reaches altitude 10° 19:30:41 10° 185° (S) 2,299 6.2 -12.6°
Maximum altitude 19:35:47 58° 107° (ESE) 891 4.0 -13.3°
Drops below altitude 10° 19:40:53 10° 30° (NNE) 2,298 6.5 -14.0°
Sets 19:43:17 0° 27° (NNE) 3,224 7.3 -14.4°
